Previsão horária em Alice Springs

Hoje, 27 Novembro, Sexta-feira

Tempo Temperatura Precipitação Vento Pressão Humidade
00:00 +30°C° 0 mm 4 m/s 706 mmHg 15%
01:00 +30°C° 0 mm 4 m/s 706 mmHg 16%
02:00 +29°C° 0 mm 3 m/s 705 mmHg 16%
03:00 +28°C° 0 mm 2 m/s 705 mmHg 18%
04:00 +28°C° 0 mm 2 m/s 706 mmHg 18%
05:00 +29°C° 0 mm 2 m/s 706 mmHg 19%
06:00 +29°C° 0 mm 2 m/s 707 mmHg 20%
07:00 +31°C° 0 mm 3 m/s 707 mmHg 17%
08:00 +35°C° 0 mm 4 m/s 708 mmHg 14%
09:00 +39°C° 0 mm 5 m/s 708 mmHg 11%
10:00 +40°C° 0 mm 4 m/s 708 mmHg 10%
11:00 +41°C° 0 mm 4 m/s 707 mmHg 9%
12:00 +42°C° 0 mm 3 m/s 707 mmHg 7%
13:00 +43°C° 0 mm 3 m/s 706 mmHg 7%
14:00 +42°C° 0 mm 2 m/s 706 mmHg 7%
15:00 +43°C° 0 mm 2 m/s 705 mmHg 6%
16:00 +42°C° 0 mm 2 m/s 705 mmHg 7%
17:00 +43°C° 0 mm 3 m/s 705 mmHg 7%
18:00 +42°C° 0 mm 3 m/s 705 mmHg 7%
19:00 +39°C° 0 mm 3 m/s 705 mmHg 8%
20:00 +37°C° 0 mm 3 m/s 705 mmHg 9%
21:00 +35°C° 0 mm 3 m/s 705 mmHg 10%
22:00 +35°C° 0 mm 3 m/s 705 mmHg 11%
23:00 +34°C° 0 mm 3 m/s 705 mmHg 13%

Amanhã, 28 Novembro, Sábado

Tempo Temperatura Precipitação Vento Pressão Humidade
00:00 +32°C° 0 mm 2 m/s 705 mmHg 14%
01:00 +31°C° 0 mm 2 m/s 704 mmHg 15%
02:00 +31°C° 0 mm 2 m/s 704 mmHg 15%
03:00 +30°C° 0 mm 2 m/s 704 mmHg 16%
04:00 +31°C° 0 mm 3 m/s 704 mmHg 16%
05:00 +32°C° 0 mm 4 m/s 705 mmHg 17%
06:00 +32°C° 0 mm 5 m/s 705 mmHg 17%
07:00 +35°C° 0 mm 7 m/s 706 mmHg 17%
08:00 +38°C° 0 mm 8 m/s 706 mmHg 18%
09:00 +42°C° 0 mm 10 m/s 706 mmHg 18%
10:00 +43°C° 0 mm 8 m/s 706 mmHg 15%
11:00 +44°C° 0 mm 6 m/s 706 mmHg 13%
12:00 +46°C° 0 mm 5 m/s 706 mmHg 10%
13:00 +46°C° 0 mm 5 m/s 705 mmHg 10%
14:00 +46°C° 0 mm 5 m/s 704 mmHg 10%
15:00 +46°C° 0 mm 5 m/s 704 mmHg 9%
16:00 +46°C° 0 mm 5 m/s 704 mmHg 10%
17:00 +45°C° 0 mm 6 m/s 704 mmHg 12%
18:00 +44°C° 0 mm 6 m/s 704 mmHg 13%
19:00 +41°C° 0 mm 7 m/s 704 mmHg 15%
20:00 +40°C° 0 mm 7 m/s 704 mmHg 17%
21:00 +38°C° 0 mm 8 m/s 704 mmHg 20%
22:00 +37°C° 0 mm 8 m/s 704 mmHg 23%
23:00 +37°C° 0 mm 9 m/s 704 mmHg 25%

Depois de amanhã, 29 Novembro, Domingo

Tempo Temperatura Precipitação Vento Pressão Humidade
00:00 +35°C° 0 mm 9 m/s 704 mmHg 28%
01:00 +34°C° 0 mm 8 m/s 704 mmHg 30%
02:00 +33°C° 0 mm 7 m/s 704 mmHg 32%
03:00 +32°C° 0 mm 5 m/s 704 mmHg 34%
04:00 +30°C° 0 mm 6 m/s 705 mmHg 35%
05:00 +29°C° 0 mm 6 m/s 705 mmHg 37%
06:00 +28°C° 0 mm 6 m/s 706 mmHg 39%
07:00 +29°C° 0 mm 6 m/s 706 mmHg 36%
08:00 +32°C° 0 mm 5 m/s 707 mmHg 33%
09:00 +33°C° 0 mm 5 m/s 707 mmHg 31%
10:00 +35°C° 0 mm 4 m/s 707 mmHg 28%
11:00 +36°C° 0 mm 3 m/s 707 mmHg 26%
12:00 +38°C° 0 mm 2 m/s 706 mmHg 23%
13:00 +39°C° 0 mm 2 m/s 706 mmHg 22%
14:00 +40°C° 0 mm 3 m/s 705 mmHg 20%
15:00 +42°C° 0 mm 3 m/s 705 mmHg 18%
16:00 +42°C° 0 mm 3 m/s 705 mmHg 19%
17:00 +41°C° 0 mm 4 m/s 705 mmHg 19%
18:00 +41°C° 0 mm 5 m/s 705 mmHg 19%
19:00 +38°C° 0.1 mm 4 m/s 706 mmHg 22%
20:00 +37°C° 0.1 mm 4 m/s 706 mmHg 25%
21:00 +35°C° 0.1 mm 4 m/s 706 mmHg 27%
22:00 +35°C° 0 mm 3 m/s 706 mmHg 28%
23:00 +34°C° 0 mm 3 m/s 706 mmHg 30%

30 Novembro, Segunda-feira

Tempo Temperatura Precipitação Vento Pressão Humidade
00:00 +33°C° 0 mm 3 m/s 706 mmHg 31%
01:00 +31°C° 0 mm 2 m/s 706 mmHg 32%
02:00 +31°C° 0 mm 2 m/s 706 mmHg 33%
03:00 +30°C° 0 mm 2 m/s 705 mmHg 35%
04:00 +30°C° 0 mm 3 m/s 706 mmHg 35%
05:00 +30°C° 0 mm 3 m/s 706 mmHg 35%
06:00 +29°C° 0 mm 3 m/s 706 mmHg 35%
07:00 +33°C° 0 mm 4 m/s 707 mmHg 31%
08:00 +35°C° 0 mm 5 m/s 707 mmHg 28%
09:00 +39°C° 0 mm 6 m/s 707 mmHg 24%
10:00 +40°C° 0 mm 5 m/s 707 mmHg 22%
11:00 +42°C° 0 mm 5 m/s 706 mmHg 20%
12:00 +43°C° 0 mm 4 m/s 706 mmHg 18%
13:00 +43°C° 0 mm 4 m/s 705 mmHg 18%
14:00 +42°C° 0 mm 3 m/s 705 mmHg 19%
15:00 +42°C° 0 mm 3 m/s 704 mmHg 20%
16:00 +41°C° 0.1 mm 4 m/s 704 mmHg 22%
17:00 +40°C° 0.1 mm 5 m/s 704 mmHg 24%
18:00 +39°C° 0.1 mm 6 m/s 704 mmHg 26%
19:00 +37°C° 0 mm 5 m/s 705 mmHg 29%
20:00 +35°C° 0 mm 5 m/s 705 mmHg 32%
21:00 +34°C° 0 mm 4 m/s 705 mmHg 36%
22:00 +34°C° 0 mm 3 m/s 705 mmHg 36%
23:00 +33°C° 0 mm 3 m/s 705 mmHg 37%

1 Dezembro, Terça-feira

Tempo Temperatura Precipitação Vento Pressão Humidade
00:00 +32°C° 0 mm 2 m/s 705 mmHg 38%
01:00 +31°C° 0 mm 2 m/s 705 mmHg 39%
02:00 +31°C° 0 mm 3 m/s 705 mmHg 40%
03:00 +30°C° 0 mm 3 m/s 705 mmHg 40%
04:00 +30°C° 0.2 mm 3 m/s 705 mmHg 43%
05:00 +29°C° 0.2 mm 4 m/s 706 mmHg 46%
06:00 +29°C° 0.2 mm 5 m/s 706 mmHg 48%
07:00 +32°C° 0.2 mm 6 m/s 707 mmHg 44%
08:00 +34°C° 0.2 mm 7 m/s 708 mmHg 40%
09:00 +35°C° 0.2 mm 8 m/s 709 mmHg 36%
10:00 +36°C° 0 mm 7 m/s 709 mmHg 33%
11:00 +38°C° 0 mm 7 m/s 709 mmHg 31%
12:00 +39°C° 0 mm 7 m/s 709 mmHg 29%
13:00 +36°C° 1.2 mm 7 m/s 708 mmHg 37%
14:00 +33°C° 1.2 mm 8 m/s 708 mmHg 44%
15:00 +31°C° 1.2 mm 9 m/s 708 mmHg 52%
16:00 +29°C° 0.7 mm 8 m/s 708 mmHg 51%
17:00 +29°C° 0.7 mm 7 m/s 708 mmHg 50%
18:00 +29°C° 0.7 mm 6 m/s 709 mmHg 50%
19:00 +28°C° 0.1 mm 6 m/s 709 mmHg 48%
20:00 +28°C° 0.1 mm 6 m/s 710 mmHg 46%
21:00 +28°C° 0.1 mm 6 m/s 710 mmHg 44%
22:00 +27°C° 0 mm 6 m/s 710 mmHg 44%
23:00 +26°C° 0 mm 6 m/s 709 mmHg 44%

2 Dezembro, Quarta-feira

Tempo Temperatura Precipitação Vento Pressão Humidade
00:00 +24°C° 0 mm 6 m/s 709 mmHg 44%
01:00 +24°C° 0 mm 6 m/s 709 mmHg 42%
02:00 +24°C° 0 mm 6 m/s 709 mmHg 41%
03:00 +24°C° 0 mm 6 m/s 709 mmHg 39%
04:00 +23°C° 0 mm 7 m/s 709 mmHg 36%
05:00 +23°C° 0 mm 8 m/s 710 mmHg 34%
06:00 +22°C° 0 mm 9 m/s 710 mmHg 31%
07:00 +23°C° 0 mm 9 m/s 711 mmHg 29%
08:00 +24°C° 0 mm 9 m/s 711 mmHg 28%
09:00 +26°C° 0 mm 9 m/s 711 mmHg 26%
10:00 +27°C° 0 mm 9 m/s 711 mmHg 26%
11:00 +29°C° 0 mm 9 m/s 711 mmHg 25%
12:00 +32°C° 0 mm 9 m/s 711 mmHg 25%
13:00 +33°C° 0 mm 9 m/s 710 mmHg 24%
14:00 +34°C° 0 mm 9 m/s 710 mmHg 23%
15:00 +34°C° 0 mm 9 m/s 710 mmHg 22%
16:00 +34°C° 0 mm 9 m/s 710 mmHg 23%
17:00 +33°C° 0 mm 9 m/s 710 mmHg 23%
18:00 +32°C° 0 mm 9 m/s 710 mmHg 24%
19:00 +31°C° 0 mm 9 m/s 710 mmHg 25%
20:00 +29°C° 0 mm 8 m/s 710 mmHg 25%
21:00 +28°C° 0 mm 7 m/s 711 mmHg 26%
22:00 +27°C° 0 mm 7 m/s 710 mmHg 27%
23:00 +27°C° 0 mm 7 m/s 710 mmHg 27%
Mostrar mais